Home > Weather > Kigali > Past weeks

Flag for Rwanda Past Weather in Kigali, Rwanda — Yesterday and Last 2 Weeks

Now
68 °F

Passing clouds.


Feels Like: 68 °F
Forecast: 55 / 79 °F
Wind: 2 mph from Southwest

Location: Kigali Airport

Current Time: Jun 27, 2016 at 2:41:40 AM

Latest Report: Jun 27, 2016 at 2:00 AM


Visibility: N/A

Pressure: 30.21 "Hg (25.20 "Hg at 1555m altitude)

Humidity: 60%

Dew Point: 54 °F

Location of KigaliLocation

Past Weather in Kigali — Graph

°F

Kigali Temperature Yesterday

Maximum temperature yesterday: 77 °F (at 1:00 PM)
Minimum temperature yesterday: 63 °F (at 3:30 AM)
Average temperature yesterday: 71 °F

High & Low Weather Summary for the Past Weeks

 TemperatureHumidityPressure
High82 °F (Jun 14, 2:00 PM)83% (Jun 16, 7:00 AM)30.33 "Hg (Jun 16, 7:00 AM)
Low61 °F (Jun 19, 6:00 AM)36% (Jun 20, 1:30 PM)30.07 "Hg (Jun 20, 4:00 PM)
Average71 °F57%30.19 "Hg
* Reported Jun 13 3:00 PM — Jun 27 1:00 AM, Kigali, Weather by CustomWeather, © 2016

Note: Actual official high and low records may vary slightly from our data, if they occured in-between our weather recording intervals... More about our weather records

Advertising

Kigali Weather History for the Previous 24 Hours

Scroll right to see more
 ConditionsComfort  
Time TempWeatherWind HumidityBarometerVisibility
1:00 AM
Mon, Jun 27
68 °FPassing clouds.No wind60%30.21 "HgN/A
12:00 AM68 °FPassing clouds.2 mph60%30.24 "HgN/A
11:00 PM
Sun, Jun 26
68 °FPassing clouds.2 mph56%30.24 "HgN/A
10:00 PM68 °FPassing clouds.5 mph56%30.24 "HgN/A
9:00 PM68 °FPassing clouds.2 mph60%30.24 "HgN/A
8:30 PM70 °FPassing clouds.6 mph53%30.21 "HgN/A
7:00 PM72 °FPassing clouds.6 mph50%30.18 "HgN/A
6:00 PM73 °FScattered clouds.7 mph47%30.18 "HgN/A
4:00 PM77 °FBroken clouds.9 mph42%30.15 "HgN/A
3:30 PM77 °FBroken clouds.7 mph42%30.15 "HgN/A
2:30 PM77 °FPartly sunny.8 mph42%30.18 "HgN/A
2:00 PM77 °FScattered clouds.7 mph42%30.18 "HgN/A
1:00 PM77 °FScattered clouds.7 mph42%N/AN/A
12:30 PM75 °FScattered clouds.7 mph44%N/AN/A
12:00 PM75 °FScattered clouds.12 mph44%N/AN/A
11:30 AM75 °FPassing clouds.10 mph44%N/AN/A
10:00 AM73 °FPassing clouds.10 mph47%30.27 "HgN/A
9:30 AM70 °FPassing clouds.8 mph53%30.30 "HgN/A
9:00 AM68 °FPassing clouds.9 mph56%30.27 "HgN/A
8:30 AM66 °FPassing clouds.7 mph60%30.27 "HgN/A
8:00 AM66 °FPassing clouds.3 mph64%30.27 "HgN/A
5:00 AM63 °FPassing clouds.2 mph73%30.21 "HgN/A
4:00 AM64 °FPassing clouds.2 mph68%30.21 "HgN/A
3:30 AM63 °FPassing clouds.2 mph73%30.21 "HgN/A
Weather by CustomWeather, © 2016

See weather overviewHow to use our weather pages